This demonstration page uses our WeatherBlox Daily Observations layout. Learn more.

Hourly Observations for August 10, 2015

Temp ( °F °C ) Dew Point ( °F °C ) Humidity (%) Winds ( mph kmh ) Pressure ( in mb ) Visibility ( mi km ) Precip ( " mm )
12:15 am 00:15 Clear 73 23 70 21 89 89 Calm 29.94 1014 10 16.09344 0 0
12:35 am 00:35 Clear 72 22 70 21 94 94 ENE 9 15 29.94 1014 7 11.265408 0 0
12:55 am 00:55 Clear 72 22 68 20 88 88 E 8 13 29.94 1014 10 16.09344 0 0
1:15 am 01:15 Clear 72 22 66 19 83 83 NE 6 9 29.94 1014 10 16.09344 0 0
1:35 am 01:35 Clear 70 21 66 19 88 88 Calm 29.94 1014 10 16.09344 0 0
1:55 am 01:55 Clear 70 21 66 19 88 88 Calm 29.94 1014 10 16.09344 0 0
2:15 am 02:15 Clear 70 21 66 19 88 88 Calm 29.94 1014 10 16.09344 0 0
2:35 am 02:35 Clear 68 20 66 19 94 94 Calm 29.94 1014 10 16.09344 0 0
2:55 am 02:55 Clear 68 20 66 19 94 94 Calm 29.94 1014 10 16.09344 0 0
3:15 am 03:15 Clear 68 20 64 18 88 88 Calm 29.94 1014 10 16.09344 0 0
3:35 am 03:35 Clear 68 20 64 18 88 88 N 5 7 29.94 1014 10 16.09344 0 0
3:55 am 03:55 Clear 68 20 64 18 88 88 N 5 7 29.94 1014 10 16.09344 0 0
4:15 am 04:15 Clear 68 20 64 18 88 88 NNW 3 6 29.94 1014 10 16.09344 0 0
4:35 am 04:35 Partly Cloudy 68 20 64 18 88 88 N 9 15 30 1016 10 16.09344 0 0
4:55 am 04:55 Mostly Cloudy 68 20 64 18 88 88 N 9 15 30 1016 10 16.09344 0 0
5:15 am 05:15 Partly Cloudy 68 20 64 18 88 88 N 6 9 30 1016 10 16.09344 0 0
5:35 am 05:35 Clear 68 20 64 18 88 88 NNW 3 6 30 1016 10 16.09344 0 0
5:55 am 05:55 Clear 66 19 63 17 88 88 NNW 3 6 30 1016 10 16.09344 0 0
6:15 am 06:15 Clear 66 19 61 16 83 83 Calm 30 1016 10 16.09344 0 0
6:35 am 06:35 Clear 64 18 59 15 83 83 NW 3 6 30 1016 10 16.09344 0 0
6:55 am 06:55 Sunny 64 18 59 15 83 83 Calm 30.03 1017 10 16.09344 0 0
7:15 am 07:15 Sunny 64 18 61 16 88 88 N 5 7 30.03 1017 10 16.09344 0 0
7:35 am 07:35 Sunny 64 18 61 16 88 88 N 5 7 30.03 1017 10 16.09344 0 0
7:55 am 07:55 Sunny 66 19 63 17 88 88 NNE 5 7 30.03 1017 10 16.09344 0 0
8:15 am 08:15 Sunny 66 19 63 17 88 88 N 8 13 30.06 1018 10 16.09344 0 0
8:35 am 08:35 Mostly Cloudy 68 20 64 18 88 88 NNE 9 15 30.06 1018 10 16.09344 0 0
8:55 am 08:55 Cloudy 68 20 64 18 88 88 NNE 10 17 30.06 1018 10 16.09344 0 0
9:15 am 09:15 Cloudy 68 20 64 18 88 88 NNE 9 15 30.06 1018 10 16.09344 0 0
9:35 am 09:35 Cloudy 68 20 64 18 88 88 NE 10 17 30.06 1018 10 16.09344 0 0
9:55 am 09:55 Cloudy 70 21 64 18 83 83 NNE 10 17 30.03 1017 10 16.09344 0 0
10:15 am 10:15 Cloudy 70 21 66 19 88 88 NE 9 15 30.03 1017 10 16.09344 0 0
10:35 am 10:35 Mostly Cloudy 72 22 64 18 78 78 NNE 8 13 30.03 1017 10 16.09344 0 0
10:55 am 10:55 Mostly Cloudy 73 23 66 19 78 78 NE 9 15 30.06 1018 10 16.09344 0 0
11:15 am 11:15 Mostly Cloudy 72 22 64 18 78 78 NE 12 19 30.06 1018 10 16.09344 0 0
11:35 am 11:35 Mostly Cloudy 73 23 64 18 74 74 N 10 17 30.06 1018 10 16.09344 0 0
11:55 am 11:55 Partly Cloudy 73 23 64 18 74 74 NE 12 19 30.06 1018 10 16.09344 0 0
12:15 pm 12:15 Sunny 73 23 64 18 74 74 NE 9 15 30.06 1018 10 16.09344 0 0
12:35 pm 12:35 Sunny 75 24 64 18 69 69 NNE 8 13 30.06 1018 10 16.09344 0 0
12:55 pm 12:55 Partly Cloudy 75 24 64 18 69 69 NE 10 17 30.06 1018 10 16.09344 0 0
1:15 pm 13:15 Sunny 75 24 64 18 69 69 NNE 5 7 30.06 1018 10 16.09344 0 0
1:35 pm 13:35 Partly Cloudy 77 25 64 18 65 65 NNE 6 9 30.03 1017 10 16.09344 0 0
1:55 pm 13:55 Partly Cloudy 77 25 64 18 65 65 NNE 8 13 30.03 1017 10 16.09344 0 0
2:15 pm 14:15 Partly Cloudy 77 25 64 18 65 65 NNE 6 9 30.03 1017 10 16.09344 0 0
2:35 pm 14:35 Partly Cloudy 77 25 64 18 65 65 NE 8 13 30.03 1017 10 16.09344 0 0
2:55 pm 14:55 Partly Cloudy 77 25 64 18 65 65 NE 10 17 30 1016 10 16.09344 0 0
3:15 pm 15:15 Partly Cloudy 77 25 63 17 61 61 NNE 8 13 30 1016 10 16.09344 0 0
3:35 pm 15:35 Partly Cloudy 79 26 64 18 61 61 ENE 9 15 30 1016 10 16.09344 0 0
3:55 pm 15:55 Partly Cloudy 79 26 64 18 61 61 N 3 6 30 1016 10 16.09344 0 0
4:15 pm 16:15 Partly Cloudy 79 26 63 17 58 58 NE 7 11 30 1016 10 16.09344 0 0
4:35 pm 16:35 Partly Cloudy 79 26 63 17 58 58 NNE 6 9 30 1016 10 16.09344 0 0
4:55 pm 16:55 Partly Cloudy 79 26 63 17 58 58 NNE 7 11 30 1016 10 16.09344 0 0
5:15 pm 17:15 Sunny 79 26 61 16 54 54 NNE 7 11 30 1016 10 16.09344 0 0
5:35 pm 17:35 Sunny 79 26 63 17 58 58 N 8 13 30 1016 10 16.09344 0 0
5:55 pm 17:55 Sunny 79 26 63 17 58 58 E 3 6 30 1016 10 16.09344 0 0
6:15 pm 18:15 Partly Cloudy 79 26 63 17 58 58 Calm 30 1016 10 16.09344 0 0
6:35 pm 18:35 Partly Cloudy 79 26 63 17 58 58 N 6 9 30 1016 10 16.09344 0 0
6:55 pm 18:55 Sunny 77 25 66 19 69 69 N 6 9 30 1016 10 16.09344 0 0
7:15 pm 19:15 Sunny 79 26 64 18 61 61 NE 6 9 30 1016 10 16.09344 0 0
7:35 pm 19:35 Sunny 77 25 66 19 69 69 ENE 3 6 30 1016 10 16.09344 0 0
7:55 pm 19:55 Sunny 75 24 66 19 74 74 ENE 6 9 30.03 1017 10 16.09344 0 0
8:15 pm 20:15 Sunny 73 23 64 18 74 74 E 6 9 30.03 1017 10 16.09344 0 0
8:35 pm 20:35 Sunny 72 22 64 18 78 78 E 6 9 30.03 1017 10 16.09344 0 0
8:55 pm 20:55 Clear 72 22 64 18 78 78 ESE 3 6 30.03 1017 10 16.09344 0 0
9:15 pm 21:15 Clear 70 21 64 18 83 83 E 6 9 30.03 1017 10 16.09344 0 0
9:35 pm 21:35 Clear 68 20 64 18 88 88 Calm 30.06 1018 10 16.09344 0 0
9:55 pm 21:55 Clear 70 21 64 18 83 83 ESE 3 6 30.06 1018 10 16.09344 0 0
10:15 pm 22:15 Clear 68 20 64 18 88 88 SSE 3 6 30.09 1019 10 16.09344 0 0
10:35 pm 22:35 Clear 66 19 63 17 88 88 SE 3 6 30.09 1019 10 16.09344 0 0
10:55 pm 22:55 Clear 66 19 63 17 88 88 SE 5 7 30.12 1020 10 16.09344 0 0
11:15 pm 23:15 Clear 66 19 63 17 88 88 ESE 5 7 30.12 1020 10 16.09344 0 0
11:35 pm 23:35 Clear 64 18 63 17 94 94 ESE 6 9 30.12 1020 10 16.09344 0 0
11:55 pm 23:55 Clear 64 18 61 16 88 88 ESE 5 7 30.12 1020 10 16.09344 0 0

Powered by AerisWeather